Flag for U.S.A. Weather past 2 weeks in Jackson, Wyoming, U.S.A.

Now
57 °F

Passing clouds.


Feels Like: 57 °F
Forecast: 44 / 77 °F
Wind: No wind

Location: Jackson Hole

Current Time: Sep 16, 2014 at 10:27:07 PM

Latest Report: Sep 16, 2014 at 9:55 PM


Visibility: 10 mi

Pressure: 30.17 "Hg

Humidity: 59%

Dew point: 43 °F

Location of JacksonLocation

Historic Weather in Jackson — Graph

°F

Jackson temperature yesterday

Maximum temperature yesterday: 79 °F (at 3:54 PM)
Minimum temperature yesterday: 34 °F (at 6:35 AM)
Average temperature yesterday: 47 °F

Past Weeks' High & Low Weather Summary

 TemperatureHumidityPressure
High79 °F (Sep 15, 3:54 PM)100% (Sep 2, 2:35 AM)30.47 "Hg (Sep 2, 2:35 AM)
Low18 °F (Sep 12, 5:55 AM)9% (Sep 12, 3:55 PM)29.89 "Hg (Sep 3, 4:35 AM)
Average46 °F63%30.17 "Hg
* Reported Sep 1 9:15 PM — Sep 16 9:35 PM, Jackson, Weather by CustomWeather, © 2014

Note: Actual official high and low records may vary slightly from our data, if they occured in-between our weather recording intervals... More about our weather records

Advertising

Jackson weather history for previous 24 hours

 ConditionsComfort  
Time TempWeatherWind HumidityBarometerVisibility
9:35 PM
Sep 16
57 °FPassing clouds.No wind59%30.17 "Hg10 mi
8:55 PM57 °FPassing clouds.3 mph59%30.16 "Hg10 mi
7:51 PM63 °FPassing clouds.No wind49%30.15 "Hg10 mi
6:51 PM70 °FPassing clouds.No wind35%30.15 "Hg10 mi
5:51 PM73 °FPassing clouds.No wind29%30.15 "Hg10 mi
4:51 PM75 °FPartly sunny.5 mph24%30.16 "Hg10 mi
3:51 PM75 °FSunny.5 mph24%30.18 "Hg10 mi
2:51 PM70 °FPartly sunny.5 mph31%30.21 "HgN/A
1:52 PM70 °FPartly sunny.7 mph29%30.23 "Hg10 mi
12:51 PM68 °FSunny.5 mph28%30.25 "Hg10 mi
11:51 AM63 °FSunny.6 mph32%30.27 "Hg10 mi
10:55 AM54 °FSunny.No wind51%30.29 "Hg10 mi
9:55 AM50 °FSunny.No wind54%30.30 "Hg10 mi
8:52 AM46 °FScattered clouds.No wind62%30.31 "Hg10 mi
7:52 AM37 °FClear.5 mph81%30.30 "Hg10 mi
6:52 AM36 °FClear.6 mph81%30.30 "Hg10 mi
6:35 AM36 °FClear.6 mph81%30.29 "Hg10 mi
6:15 AM36 °FClear.7 mph81%30.29 "Hg10 mi
5:35 AM37 °FPassing clouds.5 mph75%30.29 "Hg10 mi
5:15 AM37 °FPassing clouds.3 mph75%30.29 "Hg10 mi
4:55 AM36 °FPassing clouds.7 mph81%30.29 "Hg10 mi
4:35 AM37 °FPassing clouds.7 mph75%30.29 "Hg10 mi
4:15 AM36 °FPassing clouds.3 mph75%30.29 "Hg10 mi
3:55 AM37 °FPassing clouds.6 mph75%30.29 "Hg10 mi
3:35 AM37 °FClear.5 mph70%30.29 "Hg10 mi
3:15 AM39 °FClear.5 mph70%30.29 "Hg10 mi
2:55 AM37 °FClear.No wind75%30.29 "Hg10 mi
2:35 AM37 °FClear.6 mph75%30.29 "Hg10 mi
2:15 AM39 °FClear.6 mph70%30.29 "Hg10 mi
1:55 AM39 °FClear.5 mph70%30.29 "Hg10 mi
1:35 AM39 °FClear.3 mph70%30.28 "Hg10 mi
1:15 AM41 °FClear.3 mph66%30.28 "Hg10 mi
12:55 AM39 °FClear.6 mph70%30.27 "Hg10 mi
12:35 AM41 °FClear.6 mph66%30.27 "Hg10 mi
12:15 AM43 °FClear.5 mph61%30.27 "Hg10 mi
11:55 PM
Sep 15
43 °FClear.8 mph61%30.27 "Hg10 mi
11:35 PM45 °FClear.6 mph57%30.26 "Hg10 mi
11:15 PM43 °FClear.9 mph57%30.26 "Hg10 mi
10:55 PM45 °FClear.8 mph53%30.25 "Hg10 mi
10:35 PM46 °FClear.7 mph50%30.25 "Hg10 mi
10:15 PM48 °FClear.8 mph46%30.25 "Hg10 mi
Weather by CustomWeather, © 2014

See weather overviewHow to use our weather pages